Wind_Speed
17 14 12 10 8 6 5 4 5 6 6 5 5 6 7 7 9 5 6 4 11 16 15 18 9 7 3 3 2 2 3 2 3 4 2 9 4 2 5 5 2 2 4 9 22
18 17 16 12 10 8 6 6 6 6 5 4 4 5 6 8 7 9 5 12 18 19 20 17 7 8 1 2 2 3 1 3 2 5 3 4 4 1 4 2 3 7 12 19 20
18 17 17 15 12 10 8 7 6 5 4 3 3 4 4 6 2 6 8 20 20 18 12 11 12 6 3 2 1 2 2 2 5 3 5 0 5 5 8 3 6 8 11 12 13
18 17 17 16 14 11 9 8 6 4 2 2 3 3 2 2 4 2 3 19 17 17 9 7 4 4 3 3 1 1 2 3 5 0 2 0 6 3 6 1 9 11 14 11 10
18 18 17 16 15 13 10 9 6 2 0 2 2 1 1 0 7 3 3 24 17 18 8 5 4 4 3 2 3 0 2 4 5 4 6 3 4 3 4 8 13 12 11 10 9
19 17 17 16 16 13 10 8 6 1 2 2 3 2 1 2 3 3 8 25 17 16 8 4 5 4 4 3 2 2 3 3 5 2 5 6 7 4 4 12 11 12 10 6 6
19 18 17 16 15 12 11 8 5 1 5 5 4 2 1 9 3 3 14 19 15 16 1 1 10 4 4 4 2 5 3 2 3 4 5 9 6 2 8 12 12 10 9 7 8
21 21 17 15 14 12 10 7 4 2 7 6 4 1 6 3 2 10 13 9 12 11 1 4 13 7 4 3 3 1 2 0 2 3 3 5 4 2 8 11 9 9 9 9 10
23 23 18 15 13 11 8 4 1 2 9 7 2 1 6 4 5 10 13 5 11 6 3 10 6 4 3 4 3 2 2 2 2 9 6 8 4 7 9 10 8 9 9 9 7
27 23 17 14 11 6 2 4 11 10 8 3 1 2 4 5 5 7 13 8 4 5 4 3 5 3 3 3 3 3 3 2 3 6 7 6 10 5 6 11 11 11 9 8 8
31 24 16 13 9 1 10 6 3 1 3 7 5 3 3 1 6 6 8 10 3 4 4 1 3 7 9 8 4 3 3 4 3 4 5 9 5 6 7 7 8 12 12 12 13
36 26 19 12 9 6 8 3 5 2 4 9 3 5 7 1 4 3 11 5 4 4 4 4 7 5 3 4 5 4 4 4 1 6 3 4 9 8 9 10 10 10 12 13 8
40 29 21 11 8 5 10 10 2 2 2 5 5 4 5 8 5 5 9 5 4 4 4 6 6 5 4 3 5 6 8 3 3 5 2 3 7 5 7 7 6 11 13 11 12
41 32 19 2 4 7 5 7 5 4 4 4 3 6 4 6 3 6 11 5 1 9 5 6 5 5 6 5 8 2 9 6 9 4 3 0 5 5 6 8 7 11 11 14 14
41 29 11 11 7 5 4 3 9 5 3 1 2 6 1 7 3 5 6 5 7 5 6 8 3 3 5 5 6 5 1 5 4 3 1 2 1 7 2 8 12 11 12 14 15
41 21 1 9 8 3 3 5 3 5 1 2 4 5 5 2 2 2 4 4 3 4 2 7 2 3 6 0 5 8 8 7 4 2 2 2 3 5 4 7 6 8 14 14 13
33 8 7 10 3 7 8 4 5 3 3 3 1 3 3 4 2 3 6 7 6 4 4 5 5 4 4 4 3 6 6 3 3 3 6 3 2 9 6 7 9 13 16 15 13
21 7 2 4 5 1 6 5 2 2 4 3 1 0 7 5 4 3 5 5 4 5 3 4 7 9 6 9 10 7 8 6 6 4 3 3 5 6 4 5 7 7 11 10 11
9 5 4 7 8 2 5 3 5 4 3 6 5 3 3 3 3 4 7 8 9 10 8 4 6 5 5 5 10 6 5 5 7 3 2 3 7 8 2 4 3 5 7 12 12
6 3 12 6 5 3 5 4 3 3 4 1 2 1 2 3 1 5 7 4 5 13 7 6 5 4 4 3 1 6 6 3 2 4 3 4 5 5 3 5 3 6 9 8 7
4 4 13 4 6 5 3 5 4 6 5 4 2 3 3 3 7 6 5 4 5 2 10 7 4 16 3 3 5 2 2 5 5 4 5 2 6 7 8 6 8 7 7 9 10
3 3 12 4 4 1 2 1 5 4 5 3 2 4 3 2 4 3 6 5 2 7 9 7 5 8 14 3 3 5 7 5 5 4 1 3 6 4 7 6 8 8 7 6 7
3 2 8 3 3 2 5 4 3 7 6 5 5 2 4 4 2 1 3 3 10 2 6 7 3 2 10 5 2 5 4 4 6 4 6 6 5 2 5 6 8 8 8 7 7
3 3 4 4 2 4 4 4 6 7 1 4 3 3 5 6 4 3 6 4 9 5 5 8 4 8 8 9 4 4 6 5 6 5 6 6 4 5 7 8 6 8 8 8 8
4 1 2 3 4 3 2 4 3 6 4 7 5 4 3 2 4 3 3 7 6 5 5 2 5 5 8 9 5 6 7 10 7 6 7 7 9 8 8 8 7 8 7 7 8
3 3 4 0 2 3 4 3 3 4 3 4 3 8 4 1 3 4 4 3 6 6 6 4 3 4 5 5 7 5 7 9 4 5 2 5 7 6 4 6 6 8 9 8 7
6 3 2 3 3 2 1 3 3 5 5 0 5 4 5 2 6 11 9 9 6 4 3 2 1 1 5 2 1 3 8 8 5 4 8 6 10 6 5 9 8 6 7 10 7
Wind_Direction
16 10 4 2 358 352 339 322 298 288 287 285 294 300 303 310 302 275 239 185 179 163 165 154 171 167 184 79 64 23 64 180 206 164 141 7 41 88 85 115 349 30 132 140 150
14 14 10 5 357 349 340 330 313 294 277 276 282 287 302 313 304 244 226 168 164 156 152 155 182 168 100 83 69 74 66 254 280 160 123 339 5 55 99 197 40 73 92 118 144
9 9 10 7 359 351 346 333 320 315 287 253 252 273 307 319 308 244 181 168 162 174 169 176 157 167 97 90 122 149 197 332 306 135 129 139 328 324 130 225 197 166 144 137 142
3 3 3 3 1 352 345 340 332 324 302 234 230 260 305 331 163 157 190 179 179 172 167 171 135 113 110 189 187 210 334 343 324 184 122 327 319 131 154 230 126 147 149 146 162
359 356 354 355 356 354 348 345 342 331 9 196 184 220 140 296 255 328 135 173 171 171 196 175 134 122 157 154 101 250 263 60 36 52 57 347 347 317 217 105 117 136 154 170 175
358 353 350 346 348 349 345 339 336 328 152 146 144 145 92 237 306 293 161 165 170 175 212 165 171 148 107 107 65 6 98 81 26 335 60 36 316 314 132 130 138 150 165 183 194
359 350 343 339 340 338 337 326 323 294 182 165 156 108 75 231 309 202 168 174 174 189 138 107 132 84 136 103 120 146 78 33 31 12 28 25 331 318 142 143 152 168 171 194 215
354 345 335 330 327 329 327 315 297 234 183 175 151 117 242 273 318 176 168 175 195 200 152 139 118 96 85 108 72 233 122 69 226 153 118 35 259 177 153 147 165 184 185 198 220
349 344 329 319 316 322 324 305 268 190 160 153 108 106 270 285 221 204 188 159 175 186 149 122 76 96 58 98 34 9 269 247 175 191 142 193 244 243 164 174 178 198 197 203 216
352 351 343 326 309 324 1 114 103 104 123 122 37 349 265 232 192 198 200 138 131 113 74 64 57 87 56 94 253 243 223 258 221 211 211 183 259 262 180 179 188 203 207 197 204
354 353 344 333 314 311 126 129 49 1 225 194 192 224 262 298 152 198 177 120 80 93 141 194 101 227 206 202 213 149 187 207 220 191 163 217 244 225 201 199 200 209 206 204 206
353 350 345 327 302 267 178 190 212 184 306 220 233 286 278 12 15 152 149 118 121 187 131 35 242 225 181 192 218 205 206 218 146 144 197 219 246 219 220 223 205 191 205 210 190
352 349 342 324 295 198 201 215 203 35 79 297 185 193 207 153 216 240 140 125 148 158 184 183 216 128 176 183 206 225 219 174 173 122 178 316 281 223 221 215 205 199 201 203 200
348 345 335 333 151 162 225 150 245 204 60 269 260 260 136 153 239 191 162 134 153 190 174 239 268 257 260 222 182 287 231 198 142 116 219 297 279 275 217 213 200 210 197 199 197
346 339 323 180 147 188 151 298 132 126 56 66 170 161 107 153 165 206 170 68 169 181 117 242 219 291 289 240 145 228 311 114 85 89 18 203 82 273 133 234 219 212 209 204 197
347 332 283 167 207 170 205 155 134 43 229 31 128 161 130 241 141 89 121 87 157 171 232 233 234 213 232 130 154 134 71 51 59 87 338 243 166 277 206 219 216 205 206 203 195
349 356 163 163 152 131 131 100 47 126 334 349 145 158 178 179 200 144 155 188 178 136 276 311 220 230 178 117 23 84 71 25 0 358 229 321 153 247 253 230 219 201 203 196 189
353 23 140 162 164 221 148 56 126 242 259 309 12 323 181 156 225 144 120 225 248 94 94 224 310 172 188 189 178 179 152 154 198 208 255 36 241 256 217 284 248 202 204 176 173
7 28 48 357 220 315 79 73 212 206 310 337 337 124 199 215 182 144 199 212 202 167 179 176 271 283 201 160 138 197 194 187 105 349 81 237 287 296 334 19 87 147 156 177 183
360 42 15 41 92 27 74 222 243 227 315 331 282 133 122 180 155 159 193 213 218 189 162 207 290 237 284 130 47 161 159 94 342 146 233 284 282 244 292 243 220 168 174 180 181
23 59 5 46 350 48 139 230 276 250 230 179 242 309 235 230 197 186 220 267 191 207 166 150 139 265 18 254 197 128 213 54 115 123 162 187 262 212 224 210 200 206 201 185 185
16 63 358 341 50 35 123 233 300 323 355 338 55 228 255 231 196 246 218 224 154 155 159 205 162 240 238 228 155 185 199 146 126 220 145 150 271 246 246 203 199 208 211 204 189
59 276 358 23 92 359 321 323 335 358 341 347 5 18 7 360 304 207 312 335 18 188 171 178 209 316 326 356 353 195 197 123 109 91 192 143 256 307 255 213 192 200 211 202 167
62 33 344 42 42 92 13 353 329 342 121 344 5 56 27 18 27 342 340 309 338 0 4 132 164 171 210 227 155 175 174 179 128 130 168 223 253 263 247 212 188 191 200 190 172
28 57 173 359 1 24 20 1 348 355 358 7 10 27 308 359 2 351 329 317 313 5 14 139 216 185 245 244 242 212 179 170 186 175 158 216 193 247 218 223 216 198 177 168 159
68 32 359 103 308 5 357 17 350 341 290 336 34 320 294 173 67 299 8 243 252 322 359 3 265 179 278 266 212 256 213 178 164 146 131 147 240 218 186 152 180 197 180 174 177
21 38 101 314 357 56 285 344 317 349 272 75 348 327 305 333 308 269 224 251 251 277 287 337 65 299 240 347 181 305 225 189 183 177 152 160 218 159 191 182 190 187 201 182 171
Height
787 784 782 781 779 778 777 776 775 774 773 773 773 773 772 772 771 771 769 765 766 768 770 773 776 777 779 781 781 783 805 809 801 800 791 781 783 780 782 789 788 788 791 793 798
788 785 783 780 779 777 776 774 773 772 772 772 772 771 771 770 769 767 761 762 764 766 770 772 776 778 783 784 785 796 810 801 787 786 786 784 786 783 789 793 796 795 795 796 800
788 785 783 780 778 776 775 773 772 771 770 770 770 770 770 769 769 758 756 761 764 766 770 771 772 777 785 785 789 793 803 792 786 785 782 785 785 782 789 796 792 795 798 800 803
788 785 783 780 778 775 774 772 770 770 769 769 770 770 770 770 780 755 757 760 764 767 769 770 773 782 790 793 788 799 789 790 788 784 783 787 786 785 785 784 782 792 795 799 803
788 785 782 780 777 775 773 771 769 769 769 769 769 770 770 771 764 755 754 758 762 766 767 769 775 782 791 789 791 795 794 791 788 787 787 783 787 788 787 784 785 793 798 799 802
788 784 782 779 776 774 771 770 768 768 768 768 769 769 771 775 756 755 755 758 761 765 765 768 772 776 786 789 795 790 794 796 792 792 789 792 791 788 784 785 791 795 798 801 802
787 783 780 777 775 772 770 768 767 767 767 768 769 770 771 763 755 755 757 759 762 764 766 769 770 775 784 793 787 790 802 796 797 795 796 794 794 793 784 786 792 796 798 801 802
786 781 778 775 772 770 768 766 765 766 767 768 769 770 769 755 754 755 758 760 763 765 767 769 770 778 785 786 792 799 802 814 800 802 803 806 814 789 785 788 795 797 798 799 801
784 779 774 772 769 768 766 765 764 765 767 769 771 771 766 754 754 754 757 759 762 766 768 769 771 786 789 801 811 806 818 812 811 799 801 810 807 790 785 789 796 797 797 799 801
781 776 771 768 766 766 765 765 765 767 769 770 772 775 757 754 749 750 754 759 762 765 771 774 785 798 805 810 826 810 813 807 810 802 800 805 804 790 785 789 793 794 795 797 800
777 772 768 765 763 764 765 766 771 772 770 760 757 756 750 748 748 748 751 757 762 768 788 781 798 805 800 795 790 794 802 806 797 791 800 801 799 791 785 788 793 792 793 793 793
772 768 764 761 760 760 762 763 756 756 763 751 754 754 750 748 753 749 751 761 769 786 781 793 802 783 782 788 790 793 798 802 793 791 800 799 797 787 783 780 782 786 788 788 792
767 762 759 756 755 757 756 754 754 754 767 754 750 750 748 748 755 753 750 759 770 782 784 797 783 773 779 789 796 794 796 797 795 795 795 800 804 790 777 776 777 776 776 781 785
762 757 753 752 757 754 753 751 752 754 784 763 754 744 744 745 754 742 746 755 768 782 784 788 773 773 778 786 789 804 778 778 793 805 821 798 828 795 783 778 776 774 776 776 779
756 750 748 749 750 752 750 750 748 755 803 752 750 738 740 749 747 747 743 752 773 775 782 785 773 774 779 777 777 792 772 785 795 806 811 812 822 797 786 785 774 771 770 770 771
750 743 743 747 749 748 748 749 752 787 795 758 746 752 754 748 747 747 749 748 754 770 772 776 761 764 766 760 768 773 788 797 808 815 828 808 809 795 789 774 764 763 761 763 766
745 741 741 744 746 747 747 751 788 802 758 764 756 752 756 759 755 754 763 770 782 795 794 777 772 759 755 771 773 781 806 838 835 836 833 809 811 788 760 757 754 755 753 755 760
743 742 742 744 746 747 749 767 792 774 772 753 753 756 765 758 758 759 770 781 772 780 801 801 797 765 754 761 778 788 799 828 835 842 825 809 814 779 750 746 743 742 745 751 757
743 743 744 745 745 747 756 793 788 777 762 763 759 764 765 756 756 762 773 774 766 770 792 805 791 750 746 745 754 783 797 781 818 823 826 816 792 761 750 748 747 748 748 750 752
744 744 748 746 746 747 770 788 776 765 757 757 771 760 770 761 766 771 775 755 757 754 751 774 791 755 746 742 747 759 761 795 809 819 820 819 807 793 757 754 750 752 751 750 751
745 751 751 749 748 758 785 784 770 757 756 761 764 766 764 764 766 771 763 747 743 746 752 767 778 756 747 754 760 767 774 786 791 806 821 824 808 763 755 750 752 748 746 746 748
752 765 752 750 768 789 784 774 766 758 752 755 756 764 764 759 762 764 761 752 734 744 762 759 781 785 766 742 741 749 763 774 795 799 813 813 799 744 747 743 743 743 742 741 744
768 770 754 751 786 790 783 775 767 767 765 761 764 761 759 763 767 761 755 736 739 740 752 756 780 795 777 760 744 749 755 764 778 790 804 808 793 744 744 741 740 742 740 740 742
771 776 772 771 787 787 791 785 779 767 765 765 764 760 766 772 770 767 765 746 742 740 740 740 774 772 784 761 746 752 750 760 761 789 797 791 766 747 747 740 739 739 738 737 741
781 798 798 799 793 794 792 789 785 784 773 770 770 770 772 775 775 772 764 760 745 741 743 746 762 767 756 749 745 739 742 753 757 760 764 760 767 743 740 741 737 730 733 736 740
794 801 799 800 800 793 797 795 790 786 782 776 778 774 769 772 773 779 770 768 762 748 751 756 759 756 752 737 744 742 737 739 743 753 746 752 754 732 731 732 735 734 732 734 735
799 801 801 803 801 798 801 795 790 789 778 771 776 777 773 769 768 764 765 761 758 756 756 760 764 763 761 750 742 756 740 739 736 736 738 755 734 732 734 730 732 735 735 731 734